Clines Corner, NM

5:10 AM MST on February 21, 2018 (GMT -0700)
Clines Corner

Weather History for KCQC - April, 2013

Change the Weather History Date:

Thursday, April 11, 2013

  Actual Average (KSAF) Record (KSAF)
Temperature  
Mean Temperature 39 °F -  
Max Temperature 59 °F 0 °F 77 °F (1998)
Min Temperature 21 °F - 21 °F (2013)
Degree Days  
Heating Degree Days 26    
Moisture  
Dew Point 20 °F    
Average Humidity 47    
Maximum Humidity 75    
Minimum Humidity 23    
Precipitation  
Precipitation 0.00 in - - ()
Sea Level Pressure  
Sea Level Pressure 29.80 in    
Wind  
Wind Speed 18 mph (WNW)    
Max Wind Speed 33 mph    
Max Gust Speed 47 mph    
Visibility 10 miles    
Events      
Averages and records for this station are not official NWS values.
T = Trace of Precipitation, MM = Missing Value Source: NWS Daily Summary

Daily Weather History Graph

Daily Weather History Graph

Search for Another Location

Airport or City:

Trip Planner

Search our weather history database for the weather conditions in past years. The results will help you decide how hot, cold, wet, or windy it might be!

Date:

Astronomy

Apr. 11, 2013 Rise Set
Actual Time 6:35 AM MDT 7:32 PM MDT
Civil Twilight 6:09 AM MDT 7:58 PM MDT
Nautical Twilight 5:38 AM MDT 8:28 PM MDT
Astronomical Twilight 5:07 AM MDT 9:00 PM MDT
Moon 7:12 AM MDT (4/11) 9:04 PM MDT (4/11)
Length of Visible Light 13h 48m
Length of Day
12h 56m
New Moon, 2% of the Moon is Illuminated
Apr 11
New Moon
Apr 18
First Quarter
Apr 25
Full
May 2
Last Quarter
May 9
New

Hourly Weather History & Observations

Time (MDT) Temp. Windchill Dew Point Humidity Pressure Visibility Wind Dir Wind Speed Gust Speed Precip Events Conditions
12:53 AM 25.0 °F 16.3 °F 16.0 °F 69% 29.90 in 10.0 mi West 8.1 mph - N/A   Clear
1:53 AM 27.0 °F 15.2 °F 16.0 °F 63% 29.83 in 10.0 mi West 15.0 mph - N/A   Clear
2:53 AM 26.1 °F 13.1 °F 16.0 °F 66% 29.82 in 10.0 mi West 17.3 mph - N/A   Clear
3:53 AM 25.0 °F 14.2 °F 14.0 °F 63% 29.83 in 10.0 mi WNW 11.5 mph - N/A   Clear
4:53 AM 24.1 °F 13.7 °F 14.0 °F 65% 29.81 in 10.0 mi NW 10.4 mph - N/A   Clear
5:53 AM 21.9 °F 10.4 °F 15.1 °F 75% 29.84 in 10.0 mi WNW 11.5 mph - N/A   Clear
6:53 AM 26.1 °F 12.3 °F 18.0 °F 71% 29.84 in 10.0 mi NW 19.6 mph 25.3 mph N/A   Clear
7:53 AM 30.0 °F 16.9 °F 19.9 °F 66% 29.85 in 10.0 mi NW 21.9 mph 27.6 mph N/A   Clear
9:53 AM 42.1 °F 31.7 °F 16.0 °F 35% 29.84 in 10.0 mi NW 27.6 mph 38.0 mph N/A   Clear
10:53 AM 46.0 °F 37.6 °F 16.0 °F 30% 29.83 in 10.0 mi NW 24.2 mph 33.4 mph N/A   Clear
11:53 AM 48.9 °F - 17.1 °F 28% 29.82 in 10.0 mi NW 24.2 mph 32.2 mph N/A   Clear
12:53 PM 53.1 °F - 18.0 °F 25% 29.79 in 10.0 mi NW 31.1 mph 38.0 mph N/A   Clear
1:53 PM 57.0 °F - 19.9 °F 24% 29.75 in 10.0 mi NW 31.1 mph 39.1 mph N/A   Clear
2:53 PM 57.9 °F - 19.9 °F 23% 29.75 in 10.0 mi NW 31.1 mph 40.3 mph N/A   Clear
3:53 PM 57.9 °F - 23.0 °F 26% 29.74 in 10.0 mi WNW 33.4 mph 39.1 mph N/A   Clear
4:53 PM 57.0 °F - 25.0 °F 29% 29.75 in 10.0 mi WNW 31.1 mph 47.2 mph N/A   Clear
5:53 PM 54.0 °F - 26.1 °F 34% 29.78 in 10.0 mi WNW 31.1 mph 42.6 mph N/A   Clear
6:53 PM 52.0 °F - 25.0 °F 35% 29.77 in 10.0 mi WNW 26.5 mph 34.5 mph N/A   Clear
7:53 PM 48.0 °F - 25.0 °F 41% 29.78 in 10.0 mi WNW 25.3 mph 31.1 mph N/A   Clear
8:53 PM 46.0 °F 39.0 °F 26.1 °F 46% 29.78 in 10.0 mi West 17.3 mph - N/A   Clear
9:53 PM 44.1 °F 42.5 °F 26.1 °F 49% 29.81 in 10.0 mi SE 3.5 mph - N/A   Partly Cloudy
10:53 PM 43.0 °F 37.7 °F 27.0 °F 53% 29.80 in 10.0 mi West 9.2 mph - N/A   Clear
11:53 PM 42.1 °F 37.7 °F 27.0 °F 55% 29.79 in 10.0 mi NW 6.9 mph - N/A   Clear